CW4120 Weather Reports


time (UTC)temp
C
wind
direction
speed
KPH
gust
KPH
rain 1hr
cm
rain 24hr
cm
rain mn
cm
humidity
%
barometer
mb
20260510061035 12 165 0.0 0.0 0.00 0.00 0.00 94 1010.3
20260510060534 12 165 0.0 0.0 0.00 0.00 0.00 94 1010.3
20260510060035 12 165 0.0 0.0 0.00 0.00 0.00 94 1010.4
20260510055535 12 165 0.0 0.0 0.00 0.00 0.00 93 1010.3
20260510055034 12 165 0.0 0.0 0.00 0.00 0.00 93 1010.4
20260510054536 12 165 0.0 0.0 0.00 0.00 0.00 93 1010.5
20260510054035 12 165 0.0 0.0 0.00 0.00 0.00 93 1010.5
20260510053535 12 165 0.0 0.0 0.00 0.00 0.00 93 1010.4
20260510053035 12 165 0.0 0.0 0.00 0.00 0.00 93 1010.3
20260510052535 12 165 0.0 0.0 0.00 0.00 0.00 93 1010.5
20260510052036 12 165 0.0 0.0 0.00 0.00 0.00 93 1010.5
20260510051534 12 165 0.0 0.0 0.00 0.00 0.00 92 1010.5
20260510051035 13 165 0.0 0.0 0.00 0.00 0.00 93 1010.5
20260510050535 13 165 0.0 0.0 0.00 0.00 0.00 93 1010.4
20260510050035 13 165 0.0 0.0 0.00 0.00 0.00 92 1010.5
20260510045535 13 165 0.0 0.0 0.00 0.00 0.00 92 1010.4
20260510045035 13 165 0.0 0.0 0.00 0.00 0.00 92 1010.4
20260510044035 13 165 0.0 0.0 0.00 0.00 0.00 91 1010.4
20260510043035 13 165 0.0 0.0 0.00 0.00 0.00 91 1010.5
20260510042535 13 165 0.0 0.0 0.00 0.00 0.00 91 1010.5
20260510042035 13 165 0.0 0.0 0.00 0.00 0.00 91 1010.4
20260510041535 13 165 0.0 0.0 0.00 0.00 0.00 90 1010.5
20260510041035 13 165 0.0 0.0 0.00 0.00 0.00 90 1010.4
20260510040535 13 165 0.0 0.0 0.00 0.00 0.00 90 1010.5
20260510035535 14 165 0.0 0.0 0.00 0.00 0.00 90 1010.4
20260510035035 14 165 0.0 0.0 0.00 0.00 0.00 90 1010.4
20260510034535 14 165 0.0 0.0 0.00 0.00 0.00 89 1010.3
20260510033535 14 165 0.0 0.0 0.00 0.00 0.00 89 1010.3
20260510033035 15 165 0.0 0.0 0.00 0.00 0.00 89 1010.2
20260510032535 15 165 0.0 0.0 0.00 0.00 0.00 88 1010.2
20260510032034 15 165 0.0 0.0 0.00 0.00 0.00 88 1010.2
20260510031535 15 165 0.0 0.0 0.00 0.00 0.00 88 1010.2
20260510031035 15 165 0.0 0.0 0.00 0.00 0.00 88 1010.2
20260510030535 15 165 0.0 0.0 0.00 0.00 0.00 87 1010.2
20260510030035 15 165 0.0 0.0 0.00 0.00 0.00 87 1010.2
20260510025535 15 165 0.0 0.0 0.00 0.00 0.00 87 1010.2
20260510025035 15 165 0.0 0.0 0.00 0.00 0.00 87 1010.1
20260510024535 15 165 0.0 0.0 0.00 0.00 0.00 86 1010.0
20260510023535 15 165 0.0 0.0 0.00 0.00 0.00 86 1010.0
20260510022035 16 165 0.0 0.0 0.00 0.00 0.00 85 1009.9
20260510021535 16 165 0.0 0.0 0.00 0.00 0.00 85 1009.9
20260510021035 16 165 0.0 0.0 0.00 0.00 0.00 85 1009.8
20260510020534 16 165 0.0 0.0 0.00 0.00 0.00 85 1009.8
20260510020035 16 165 0.0 0.0 0.00 0.00 0.00 84 1009.8
20260510015534 16 165 0.0 0.0 0.00 0.00 0.00 84 1009.7
20260510014535 16 165 0.0 0.0 0.00 0.00 0.00 84 1009.6
20260510014035 16 165 0.0 0.0 0.00 0.00 0.00 84 1009.6
20260510013535 16 165 0.0 0.0 0.00 0.00 0.00 84 1009.5
20260510013035 16 165 0.0 0.0 0.00 0.00 0.00 83 1009.4
20260510012535 16 165 0.0 0.0 0.00 0.00 0.00 82 1009.4
20260510012035 16 165 0.0 0.0 0.00 0.00 0.00 82 1009.3
20260510011535 17 165 0.0 0.0 0.00 0.00 0.00 82 1009.3
20260510011035 17 165 0.0 0.0 0.00 0.00 0.00 81 1009.2
20260510010535 17 165 0.0 0.0 0.00 0.00 0.00 80 1009.3
20260510010034 17 165 0.0 0.0 0.00 0.00 0.00 79 1009.1
20260510004534 17 165 0.0 0.0 0.00 0.00 0.00 77 1009.0
20260510004034 18 165 0.0 0.0 0.00 0.00 0.00 77 1009.0
20260510003535 18 165 0.0 0.0 0.00 0.00 0.00 76 1008.9
20260510002535 18 165 0.0 0.0 0.00 0.00 0.00 75 1008.9
20260510002035 19 165 0.0 0.0 0.00 0.00 0.00 74 1008.8
20260510001535 19 165 0.0 0.0 0.00 0.00 0.00 74 1008.7
20260510001035 20 165 0.0 0.0 0.00 0.00 0.00 72 1008.7
20260510000534 20 165 0.0 0.0 0.00 0.00 0.00 71 1008.8
20260510000035 20 165 0.0 0.0 0.00 0.00 0.00 70 1008.6
20260509235535 20 165 0.0 0.0 0.00 0.00 0.00 68 1008.6
20260509235034 20 165 0.0 0.0 0.00 0.00 0.00 68 1008.5
20260509234535 21 165 0.0 0.0 0.00 0.00 0.00 67 1008.6
20260509234035 21 165 0.0 0.0 0.00 0.00 0.00 66 1008.4
20260509233534 21 165 0.0 0.0 0.00 0.00 0.00 65 1008.4
20260509232534 21 165 0.0 0.0 0.00 0.00 0.00 64 1008.3
20260509232034 21 165 0.0 0.0 0.00 0.00 0.00 63 1008.4
20260509231534 21 165 0.0 1.6 0.00 0.00 0.00 62 1008.5
20260509231035 22 165 0.0 4.8 0.00 0.00 0.00 62 1008.5
20260509230535 22 165 0.0 4.8 0.00 0.00 0.00 62 1008.3
20260509230034 22 174 1.6 4.8 0.00 0.00 0.00 61 1008.3
20260509225534 22 167 3.2 4.8 0.00 0.00 0.00 61 1008.3
20260509224534 22 183 3.2 4.8 0.00 0.00 0.00 60 1008.3
20260509224035 22 157 1.6 11.3 0.00 0.00 0.00 60 1008.4
20260509223035 22 159 4.8 9.7 0.00 0.00 0.00 60 1008.3
20260509222036 22 206 1.6 4.8 0.00 0.00 0.00 60 1008.4
20260509220535 22 147 3.2 11.3 0.00 0.00 0.00 60 1008.5
20260509220035 22 154 6.4 11.3 0.00 0.00 0.00 58 1008.4
20260509214535 22 184 1.6 4.8 0.00 0.00 0.00 56 1008.3
20260509213535 23 205 3.2 11.3 0.00 0.00 0.00 56 1008.3
20260509213035 23 212 1.6 11.3 0.00 0.00 0.00 56 1008.2
20260509212034 23 163 8.0 19.3 0.00 0.00 0.00 55 1008.2
20260509211535 23 169 3.2 19.3 0.00 0.00 0.00 54 1008.2
20260509210535 23 211 4.8 19.3 0.00 0.00 0.00 54 1008.3
20260509205534 23 186 9.7 19.3 0.00 0.00 0.00 54 1008.2
20260509204534 22 263 4.8 11.3 0.00 0.00 0.00 57 1008.3
20260509204035 22 242 4.8 11.3 0.00 0.00 0.00 57 1008.2
20260509203534 22 239 1.6 9.7 0.00 0.00 0.00 57 1008.1
20260509202535 22 169 4.8 12.9 0.00 0.00 0.00 59 1008.1
20260509202035 22 179 1.6 14.5 0.00 0.00 0.00 60 1008.1
20260509201535 22 208 4.8 14.5 0.00 0.00 0.00 60 1008.3
20260509201034 22 215 8.0 14.5 0.00 0.00 0.00 58 1008.3
20260509200535 22 210 3.2 14.5 0.00 0.00 0.00 58 1008.5
20260509195534 22 217 8.0 14.5 0.00 0.00 0.00 59 1008.7
20260509195034 22 242 3.2 11.3 0.00 0.00 0.00 61 1008.7
20260509194535 22 241 3.2 11.3 0.00 0.00 0.00 59 1008.7
20260509194034 22 212 4.8 9.7 0.00 0.00 0.00 59 1008.9
20260509193535 22 184 3.2 14.5 0.00 0.00 0.00 60 1008.9
20260509192534 21 240 4.8 14.5 0.00 0.00 0.00 60 1009.1
20260509192035 21 180 3.2 11.3 0.00 0.00 0.00 62 1009.2
20260509191535 21 237 3.2 11.3 0.00 0.00 0.00 62 1009.2
20260509191034 21 218 4.8 12.9 0.00 0.00 0.00 62 1009.3
20260509190534 20 179 1.6 12.9 0.00 0.00 0.00 64 1009.3
20260509190034 20 185 3.2 14.5 0.00 0.00 0.00 64 1009.3
20260509185034 20 208 6.4 16.1 0.00 0.00 0.00 63 1009.2
20260509184534 20 214 4.8 12.9 0.00 0.00 0.00 64 1009.2
20260509184034 20 166 4.8 12.9 0.00 0.00 0.00 64 1009.2
20260509183534 20 210 4.8 8.0 0.00 0.00 0.00 63 1009.4
20260509183034 20 212 1.6 8.0 0.00 0.00 0.00 64 1009.5
20260509182534 20 143 1.6 8.0 0.00 0.00 0.00 65 1009.7
20260509182035 20 330 3.2 11.3 0.00 0.00 0.00 63 1009.8
20260509181534 20 181 1.6 11.3 0.00 0.00 0.00 64 1009.8
20260509181035 20 221 1.6 12.9 0.00 0.00 0.00 64 1010.0
20260509180535 20 236 3.2 12.9 0.00 0.00 0.00 63 1010.0
20260509175534 20 253 1.6 12.9 0.00 0.00 0.00 63 1010.0
20260509175034 20 292 0.0 12.9 0.00 0.00 0.00 63 1010.2
20260509174035 20 64 3.2 16.1 0.00 0.00 0.00 61 1010.2
20260509173535 21 274 3.2 12.9 0.00 0.00 0.00 62 1010.2
20260509173035 21 276 3.2 16.1 0.00 0.00 0.00 61 1010.2
20260509172534 21 188 4.8 16.1 0.00 0.00 0.00 61 1010.1
20260509171034 20 314 1.6 11.3 0.00 0.00 0.00 62 1010.2
20260509170534 20 131 4.8 11.3 0.00 0.00 0.00 62 1010.2
20260509165535 20 234 6.4 12.9 0.00 0.00 0.00 62 1010.3
20260509165034 20 151 6.4 14.5 0.00 0.00 0.00 63 1010.4
20260509164534 20 256 1.6 14.5 0.00 0.00 0.00 63 1010.3
20260509164034 19 246 4.8 14.5 0.00 0.00 0.00 63 1010.5
20260509163535 19 201 4.8 12.9 0.00 0.00 0.00 63 1010.5
20260509162535 19 230 3.2 14.5 0.00 0.00 0.00 63 1010.6
20260509161534 19 211 6.4 14.5 0.00 0.00 0.00 64 1010.5
20260509161034 18 184 9.7 14.5 0.00 0.00 0.00 64 1010.6
20260509160534 19 179 4.8 14.5 0.00 0.00 0.00 64 1010.6
20260509160035 19 191 8.0 14.5 0.00 0.00 0.00 64 1010.5
20260509155534 19 184 3.2 9.7 0.00 0.00 0.00 64 1010.6
20260509155034 19 223 1.6 9.7 0.00 0.00 0.00 64 1010.6
20260509154534 19 310 3.2 9.7 0.00 0.00 0.00 65 1010.8
20260509154034 18 260 1.6 20.9 0.00 0.00 0.00 64 1010.8
20260509153534 19 241 8.0 20.9 0.00 0.00 0.00 63 1010.9
20260509153035 19 237 3.2 16.1 0.00 0.00 0.00 66 1010.9
20260509152534 18 220 4.8 16.1 0.00 0.00 0.00 65 1010.9
20260509152034 18 139 6.4 12.9 0.00 0.00 0.00 64 1010.9
20260509151534 18 216 3.2 14.5 0.00 0.00 0.00 66 1010.7
20260509151034 18 218 8.0 19.3 0.00 0.00 0.00 65 1010.8
20260509150534 18 216 9.7 19.3 0.00 0.00 0.00 64 1010.9
20260509150034 18 208 4.8 14.5 0.00 0.00 0.00 67 1011.1
20260509145535 17 184 3.2 14.5 0.00 0.00 0.00 67 1011.1
20260509145035 17 175 4.8 16.1 0.00 0.00 0.00 68 1011.2
20260509144534 17 253 8.0 16.1 0.00 0.00 0.00 68 1011.3
20260509144035 17 214 6.4 19.3 0.00 0.00 0.00 67 1011.4
20260509143535 17 169 6.4 19.3 0.00 0.00 0.00 67 1011.3
20260509143035 17 180 8.0 19.3 0.00 0.00 0.00 67 1011.4
20260509142535 16 283 6.4 16.1 0.00 0.00 0.00 66 1011.5
20260509142034 16 220 8.0 14.5 0.00 0.00 0.00 67 1011.5
20260509141535 16 196 6.4 14.5 0.00 0.00 0.00 68 1011.6
20260509141035 16 197 4.8 14.5 0.00 0.00 0.00 69 1011.6
20260509140534 16 218 4.8 14.5 0.00 0.00 0.00 70 1011.6
20260509140034 15 226 4.8 14.5 0.00 0.00 0.00 69 1011.5
20260509135535 15 206 3.2 12.9 0.00 0.00 0.00 70 1011.5
20260509135034 15 153 3.2 12.9 0.00 0.00 0.00 71 1011.5
20260509134534 15 214 4.8 12.9 0.00 0.00 0.00 71 1011.5
20260509134034 15 211 3.2 14.5 0.00 0.00 0.00 71 1011.5
20260509133534 14 194 3.2 14.5 0.00 0.00 0.00 72 1011.5
20260509133034 14 201 4.8 14.5 0.00 0.00 0.00 72 1011.6
20260509132534 14 133 4.8 11.3 0.00 0.00 0.00 72 1011.5
20260509132034 14 202 3.2 12.9 0.00 0.00 0.00 72 1011.6
20260509131535 14 176 6.4 16.1 0.00 0.00 0.00 71 1011.5
20260509131034 14 220 4.8 16.1 0.00 0.00 0.00 71 1011.6
20260509130534 14 218 3.2 16.1 0.00 0.00 0.00 70 1011.7
20260509130034 14 178 8.0 16.1 0.00 0.00 0.00 70 1011.6
20260509125534 14 140 4.8 14.5 0.00 0.00 0.00 70 1011.6
20260509125034 14 185 3.2 12.9 0.00 0.00 0.00 70 1011.7
20260509124534 14 125 1.6 16.1 0.00 0.00 0.00 70 1011.7
20260509124034 14 145 3.2 16.1 0.00 0.00 0.00 70 1011.7
20260509123534 14 173 4.8 16.1 0.00 0.00 0.00 70 1011.6
20260509123034 14 199 4.8 12.9 0.00 0.00 0.00 70 1011.6
20260509122534 14 167 4.8 11.3 0.00 0.00 0.00 69 1011.6
20260509121534 14 214 4.8 14.5 0.00 0.00 0.00 69 1011.7
20260509121034 14 172 8.0 14.5 0.00 0.00 0.00 68 1011.8
20260509120534 14 186 4.8 16.1 0.00 0.00 0.00 68 1011.7
20260509120035 14 194 8.0 16.1 0.00 0.00 0.00 67 1011.6
20260509115034 13 209 9.7 19.3 0.00 0.00 0.00 66 1011.5
20260509114534 13 147 4.8 9.7 0.00 0.00 0.00 67 1011.6
20260509114034 13 192 3.2 8.0 0.00 0.00 0.00 68 1011.6
20260509113534 13 188 3.2 11.3 0.00 0.00 0.00 67 1011.6
20260509113034 13 283 4.8 11.3 0.00 0.00 0.00 67 1011.6
20260509112534 13 235 3.2 9.7 0.00 0.00 0.00 67 1011.5
20260509112034 13 235 3.2 9.7 0.00 0.00 0.00 67 1011.5
20260509111534 13 250 3.2 12.9 0.00 0.00 0.00 66 1011.5
20260509110534 13 207 3.2 9.7 0.00 0.00 0.00 65 1011.5
20260509110034 13 145 3.2 9.7 0.00 0.00 0.00 65 1011.5
20260509105534 13 158 3.2 9.7 0.00 0.00 0.00 64 1011.4
20260509104534 14 204 4.8 12.9 0.00 0.00 0.00 61 1011.4
20260509104034 14 192 1.6 12.9 0.00 0.00 0.00 61 1011.4
20260509103534 14 171 3.2 9.7 0.00 0.00 0.00 61 1011.4
20260509103034 14 183 4.8 9.7 0.00 0.00 0.00 60 1011.4
20260509102534 14 164 3.2 4.8 0.00 0.00 0.00 60 1011.2
20260509102034 14 209 1.6 4.8 0.00 0.00 0.00 59 1011.3
20260509101534 14 182 1.6 4.8 0.00 0.00 0.00 59 1011.1
20260509100534 15 165 1.6 4.8 0.00 0.00 0.00 59 1011.1
20260509100034 15 159 1.6 9.7 0.00 0.00 0.00 58 1011.2
20260509095534 15 198 1.6 9.7 0.00 0.00 0.00 57 1011.0
20260509095034 15 200 3.2 8.0 0.00 0.00 0.00 58 1010.9
20260509094534 14 186 1.6 4.8 0.00 0.00 0.00 58 1010.9
20260509094034 14 243 0.0 4.8 0.00 0.00 0.00 58 1011.0
20260509093034 14 103 0.0 4.8 0.00 0.00 0.00 59 1011.1
20260509092534 14 150 1.6 4.8 0.00 0.00 0.00 59 1011.2
20260509092034 14 193 1.6 4.8 0.00 0.00 0.00 60 1011.2
20260509091534 14 226 1.6 8.0 0.00 0.00 0.00 60 1011.2
20260509091034 14 135 0.0 8.0 0.00 0.00 0.00 60 1011.2
20260509090035 13 187 1.6 9.7 0.00 0.00 0.00 61 1011.2
20260509085535 13 224 1.6 9.7 0.00 0.00 0.00 61 1011.3
20260509084534 13 197 3.2 9.7 0.00 0.00 0.00 61 1011.5
20260509084034 13 211 1.6 9.7 0.00 0.00 0.00 61 1011.4
20260509083534 13 179 3.2 11.3 0.00 0.00 0.00 61 1011.5
20260509083034 13 177 1.6 19.3 0.00 0.00 0.00 62 1011.5
20260509082534 13 206 4.8 19.3 0.00 0.00 0.00 62 1011.6
20260509082034 13 221 3.2 20.9 0.00 0.00 0.00 61 1011.6
20260509081534 13 188 3.2 20.9 0.00 0.00 0.00 61 1011.6
20260509081034 13 178 3.2 14.5 0.00 0.00 0.00 61 1011.7
20260509080534 13 212 4.8 16.1 0.00 0.00 0.00 61 1011.9
20260509080034 13 218 4.8 16.1 0.00 0.00 0.00 61 1011.8
20260509075534 13 211 8.0 16.1 0.00 0.00 0.00 61 1011.9
20260509075034 13 184 4.8 16.1 0.00 0.00 0.00 62 1011.9
20260509074034 13 205 4.8 19.3 0.00 0.00 0.00 62 1012.0
20260509073534 13 206 1.6 19.3 0.00 0.00 0.00 62 1012.0
20260509072534 13 219 6.4 19.3 0.00 0.00 0.00 61 1012.0
20260509072034 13 158 8.0 19.3 0.00 0.00 0.00 61 1012.1
20260509071534 13 246 8.0 19.3 0.00 0.00 0.00 61 1012.0
20260509071034 13 205 4.8 19.3 0.00 0.00 0.00 61 1012.0
20260509070534 13 179 8.0 19.3 0.00 0.00 0.00 61 1012.0
20260509070035 13 212 3.2 14.5 0.00 0.00 0.00 61 1012.0
20260509065535 13 192 4.8 14.5 0.00 0.00 0.00 61 1012.0
20260509065035 13 159 4.8 14.5 0.00 0.00 0.00 61 1012.0
20260509064534 13 188 4.8 14.5 0.00 0.00 0.00 61 1012.1
20260509064034 13 178 4.8 12.9 0.00 0.00 0.00 61 1012.1
20260509063534 13 194 3.2 9.7 0.00 0.00 0.00 61 1012.2
20260509063035 13 156 3.2 12.9 0.00 0.00 0.00 60 1012.2
20260509062535 13 168 3.2 12.9 0.00 0.00 0.00 60 1012.2
20260509062034 13 190 3.2 12.9 0.00 0.00 0.00 60 1012.3
20260509061535 13 164 4.8 11.3 0.00 0.00 0.00 60 1012.2